Tracking 19846 objects as of 20-Sep-2019
HD Live streaming from Space Station
objects crossing your sky now

SL-21 R/B


SL-21 R/B is no longer on orbit


NORAD ID: 29159
Int'l Code: 2006-019C
Perigee: N/A
Apogee: N/A
Inclination: N/A
Period: N/A
Semi major axis: N/A
RCS: N/A
Launch date: May 26, 2006
Source: Commonwealth of Independent States (former USSR) (CIS)
Launch site: Submarine Launch from Barents Sea, Russia (SADOL)
Decay date: 2014-11-14

Note: This is a ROCKET BODY
aabbcc
Your satellite tracking list
Your tracking list is empty




NASA's NSSDC Master Catalog

Two Line Element Set (TLE):
1 29159U 06019C   14318.41965966  .10697153 -42403-6  70629-4 0  9995
2 29159 078.8445 128.6105 0007838 344.6421 016.8774 16.53756333477763
Source of the keplerian elements: AFSPC